Date,TemperatureHighF,TemperatureAvgF,TemperatureLowF,DewpointHighF,DewpointAvgF,DewpointLowF,HumidityHigh,HumidityAvg,HumidityLow,PressureMaxIn,PressureMinIn,WindSpeedMaxMPH,WindSpeedAvgMPH,GustSpeedMaxMPH,PrecipitationSumIn
2013-1-1,44.0,37.3,33.0,34.0,30.9,28.0,89,78,64,0.00,40.00,5,2,6,0.00
2013-1-2,48.0,37.8,34.0,29.0,27.8,26.0,81,69,44,0.00,40.00,0,0,2,0.00
2013-1-3,41.0,33.6,27.0,37.0,28.2,22.0,100,83,47,0.00,40.00,3,2,6,0.00
2013-1-4,45.0,40.4,37.0,43.0,39.2,37.0,100,95,85,0.00,40.00,3,2,8,0.00
2013-1-5,44.0,41.8,40.0,39.0,36.4,34.0,97,82,70,0.00,40.00,2,1,6,0.00
2013-1-6,44.0,41.8,40.0,43.0,41.5,40.0,100,99,96,0.00,40.00,3,2,8,0.00
2013-1-7,49.0,44.8,41.0,45.0,42.7,41.0,100,92,81,0.00,40.00,5,4,13,0.00
2013-1-8,51.0,48.8,45.0,51.0,48.0,41.0,100,97,87,0.00,40.00,8,5,18,0.01
2013-1-9,50.0,49.7,49.0,50.0,49.7,49.0,100,100,100,0.00,40.00,7,6,16,0.01
2013-1-10,38.0,37.0,36.0,36.0,36.0,36.0,100,96,93,0.00,40.00,2,2,5,0.00
2013-1-11,35.0,31.0,28.0,30.0,28.0,26.0,100,89,69,0.00,40.00,3,1,5,0.00
2013-1-12,37.0,30.4,25.0,28.0,24.8,22.0,100,81,58,0.00,40.00,5,1,8,0.00
2013-1-13,26.0,26.0,26.0,26.0,26.0,26.0,100,100,100,0.00,40.00,0,0,1,0.00
2013-1-14,37.0,34.5,33.0,29.0,28.0,27.0,84,77,68,0.00,40.00,3,1,6,0.00
2013-1-15,35.0,35.0,35.0,29.0,29.0,29.0,80,80,80,0.00,40.00,1,1,2,0.00
2013-1-17,35.0,32.5,30.0,35.0,32.5,30.0,100,100,100,0.00,40.00,1,0,3,0.00
2013-1-18,37.0,34.3,33.0,37.0,34.3,33.0,100,100,100,0.00,40.00,3,2,6,0.00
2013-1-19,35.0,33.5,32.0,35.0,33.5,32.0,100,100,100,0.00,40.00,2,1,3,0.00
2013-1-20,37.0,33.8,32.0,37.0,33.8,32.0,100,100,100,0.00,40.00,5,2,7,0.00
2013-1-21,35.0,33.3,31.0,35.0,33.3,31.0,100,100,100,0.00,40.00,3,2,7,0.00
2013-1-22,38.0,32.6,31.0,37.0,32.6,31.0,100,100,100,0.00,40.00,2,1,3,0.00
2013-1-23,42.0,39.8,38.0,42.0,37.8,35.0,100,93,84,0.00,40.00,2,2,6,0.00
2013-1-24,42.0,42.0,42.0,42.0,42.0,42.0,100,100,100,0.00,40.00,1,1,7,0.00
2013-1-25,44.0,43.0,42.0,43.0,42.5,42.0,100,98,95,0.00,40.00,1,0,3,0.00
2013-1-26,41.0,40.0,39.0,41.0,40.0,39.0,100,100,100,0.00,40.00,1,1,3,0.00
2013-1-27,42.0,41.2,40.0,41.0,39.6,38.0,100,94,88,0.00,40.00,6,3,10,0.00
2013-1-29,42.0,42.0,42.0,42.0,42.0,42.0,100,100,100,0.00,40.00,2,2,6,0.00
2013-1-31,49.0,47.7,46.0,47.0,46.0,45.0,100,94,85,0.00,40.00,3,2,7,0.00
2013-2-1,50.0,46.6,44.0,46.0,44.4,42.0,100,92,76,0.00,40.00,2,1,6,0.00
2013-2-2,41.0,39.3,38.0,40.0,39.0,38.0,100,99,98,0.00,40.00,3,2,6,0.00
2013-2-3,45.0,45.0,45.0,45.0,45.0,44.0,100,100,100,0.00,40.00,3,3,6,0.00
2013-2-4,44.0,44.0,44.0,44.0,44.0,44.0,100,100,100,0.00,40.00,1,1,3,0.00
2013-2-5,44.0,44.0,44.0,44.0,44.0,44.0,100,100,99,0.00,40.00,3,2,12,0.00
2013-2-6,45.0,43.7,43.0,44.0,43.3,43.0,100,99,96,0.00,40.00,3,2,6,0.00
2013-2-7,50.0,45.3,41.0,41.0,36.2,31.0,92,72,52,0.00,40.00,6,3,17,0.00
2013-2-8,42.0,37.3,35.0,35.0,35.0,35.0,100,92,77,0.00,40.00,2,1,3,0.00
2013-2-9,45.0,43.0,41.0,38.0,37.0,36.0,88,79,70,0.00,40.00,1,0,2,0.00
2013-2-10,43.0,43.0,43.0,37.0,36.3,36.0,79,78,77,0.00,40.00,3,2,6,0.00
2013-2-11,47.0,47.0,47.0,38.0,38.0,38.0,71,71,71,0.00,40.00,2,2,5,0.00
2013-2-12,50.0,46.3,44.0,45.0,44.0,43.0,100,93,78,0.00,40.00,7,4,15,0.00
2013-2-13,48.0,47.0,46.0,46.0,45.5,45.0,100,96,91,0.00,40.00,3,2,9,0.00
2013-2-14,43.0,43.0,43.0,43.0,43.0,43.0,100,100,100,0.00,40.00,3,3,6,0.00
2013-2-18,43.0,43.0,43.0,36.0,36.0,36.0,76,76,76,0.00,40.00,2,2,5,0.00
2013-2-20,45.0,41.7,40.0,40.0,39.0,37.0,100,91,73,0.00,40.00,5,2,9,0.00
2013-2-21,43.0,41.5,40.0,40.0,39.0,38.0,100,92,83,0.00,40.00,5,3,13,0.00
2013-2-22,42.0,42.0,42.0,42.0,42.0,42.0,99,99,99,0.00,40.00,6,6,17,0.00
2013-2-23,47.0,47.0,47.0,35.0,35.0,35.0,62,62,62,0.00,40.00,3,3,5,0.00
2013-2-24,41.0,41.0,41.0,34.0,34.0,34.0,77,77,77,0.00,40.00,3,3,6,0.00
2013-2-25,52.0,46.0,40.0,34.0,33.5,33.0,80,64,49,0.00,40.00,7,4,17,0.00
2013-2-26,40.0,37.5,35.0,36.0,35.0,34.0,96,90,84,0.00,40.00,1,0,6,0.00
2013-2-27,41.0,41.0,41.0,39.0,39.0,39.0,92,92,92,0.00,40.00,1,1,3,0.00
2013-2-28,51.0,48.0,43.0,51.0,48.0,43.0,100,100,100,0.00,40.00,3,2,10,0.00
2013-3-1,57.0,53.5,51.0,52.0,49.8,47.0,100,88,72,0.00,40.00,6,5,15,0.00
2013-3-2,58.0,50.6,41.0,50.0,46.4,39.0,100,87,64,0.00,40.00,6,4,13,0.01
2013-3-3,49.0,41.4,36.0,39.0,35.0,31.0,100,81,50,0.00,40.00,3,1,6,0.01
2013-3-4,53.0,40.7,32.0,34.0,29.0,25.0,100,67,36,0.00,40.00,5,2,12,0.00
2013-3-5,50.0,45.0,39.0,39.0,34.8,26.0,82,68,55,0.00,40.00,5,2,9,0.00
2013-3-6,43.0,41.4,41.0,41.0,39.2,37.0,100,92,85,0.00,40.00,6,2,12,0.01
2013-3-7,50.0,43.6,39.0,43.0,40.4,39.0,100,90,66,0.00,40.00,3,1,7,0.01
2013-3-8,52.0,43.8,38.0,38.0,37.0,36.0,100,78,59,0.00,40.00,7,3,12,0.00
2013-3-9,54.0,40.7,33.0,38.0,35.8,33.0,100,85,52,0.00,40.00,2,1,5,0.00
2013-3-10,40.0,40.0,40.0,36.0,36.0,36.0,86,86,86,0.00,40.00,1,1,2,0.00
2013-3-14,51.0,51.0,51.0,46.0,46.0,46.0,82,82,82,0.00,40.00,1,1,7,0.00
2013-5-20,56.0,55.3,55.0,46.0,45.0,44.0,69,68,67,0.00,40.00,2,2,6,0.00
2013-5-21,57.0,52.0,49.0,48.0,44.7,43.0,94,76,62,0.00,40.00,7,2,13,0.02
2013-5-22,54.0,48.7,46.0,47.0,45.1,43.0,99,88,68,0.00,40.00,3,1,9,0.00
2013-5-23,57.0,50.8,46.0,46.0,43.5,40.0,97,77,57,0.00,40.00,5,2,12,0.00
2013-5-24,63.0,53.2,46.0,50.0,45.4,42.0,100,77,47,0.00,40.00,6,2,9,0.00
2013-5-25,64.0,56.4,51.0,48.0,45.3,42.0,86,68,45,0.00,40.00,5,1,7,0.00
2013-5-26,65.0,56.0,50.0,53.0,50.1,48.0,97,81,59,0.00,40.00,3,1,8,0.00
2013-5-27,60.0,55.8,52.0,57.0,52.7,48.0,99,90,78,0.00,40.00,3,1,7,0.00
2013-5-28,64.0,56.4,53.0,53.0,49.1,45.0,97,78,60,0.00,40.00,2,1,10,0.00
2013-5-29,64.0,54.2,50.0,50.0,48.3,46.0,100,81,56,0.00,40.00,6,1,12,0.00
2013-5-30,61.0,55.3,49.0,48.0,45.5,43.0,85,70,54,0.00,40.00,5,2,18,0.00
2013-5-31,67.0,57.4,51.0,48.0,44.8,40.0,85,65,37,0.00,40.00,5,2,8,0.00
2013-6-1,74.0,60.8,52.0,48.0,45.6,42.0,80,59,38,0.00,40.00,8,2,16,0.00
2013-6-2,71.0,61.2,53.0,52.0,48.2,43.0,96,64,42,0.00,40.00,6,2,9,0.00
2013-6-3,72.0,60.7,50.0,51.0,49.7,48.0,100,70,43,0.00,40.00,6,2,9,0.00
2013-6-4,77.0,61.9,49.0,54.0,50.2,45.0,100,69,39,0.00,40.00,6,2,14,0.00
2013-6-5,76.0,63.3,54.0,54.0,50.0,46.0,82,63,43,0.00,40.00,7,2,12,0.00
2013-6-6,78.0,66.3,52.0,54.0,48.6,39.0,96,57,26,0.00,40.00,6,3,13,0.00
2013-6-7,67.0,61.4,56.0,52.0,47.2,44.0,77,60,45,0.00,40.00,5,1,12,0.00
2013-6-8,68.0,60.6,54.0,49.0,46.7,45.0,72,61,49,0.00,40.00,6,3,10,0.00
2013-6-9,66.0,58.2,53.0,47.0,45.8,42.0,78,64,47,0.00,40.00,5,2,10,0.00
2013-6-10,71.0,60.7,47.0,47.0,44.9,41.0,88,58,37,0.00,40.00,5,2,13,0.00
2013-6-11,67.0,58.2,53.0,48.0,45.4,44.0,74,63,45,0.00,40.00,5,2,13,0.00
2013-6-12,56.0,54.5,53.0,50.0,48.0,46.0,80,79,78,0.00,40.00,0,0,2,0.00
2013-6-13,67.0,67.0,67.0,46.0,46.0,46.0,46,46,46,0.00,40.00,3,3,6,0.00
2013-6-14,58.0,58.0,58.0,46.0,46.0,46.0,64,64,64,0.00,40.00,1,1,7,0.00
2013-6-15,72.0,61.0,50.0,52.0,49.5,47.0,88,68,49,0.00,40.00,5,2,9,0.00
2013-6-16,74.0,73.0,72.0,54.0,53.5,53.0,52,50,49,0.00,40.00,1,0,3,0.00
2013-6-17,76.0,73.0,70.0,52.0,49.0,46.0,52,44,35,0.00,40.00,3,2,10,0.00
2013-6-18,74.0,73.5,73.0,44.0,42.5,41.0,34,33,32,0.00,40.00,2,2,7,0.00
2013-6-19,63.0,63.0,63.0,51.0,51.0,51.0,65,65,65,0.00,40.00,5,5,8,0.00
2013-6-20,55.0,55.0,55.0,51.0,51.0,51.0,86,86,86,0.00,40.00,1,1,5,0.00
2013-8-21,78.0,65.2,51.0,55.0,51.6,48.0,96,65,39,0.00,40.00,8,2,14,0.00
2013-8-22,82.0,69.1,56.0,56.0,52.3,50.0,82,59,34,0.00,40.00,7,2,12,0.00
2013-8-23,75.0,68.1,62.0,57.0,55.4,54.0,82,65,52,0.00,40.00,3,2,12,0.00
2013-8-24,73.0,66.3,60.0,56.0,53.9,51.0,78,65,46,0.00,40.00,3,2,7,0.00
2013-8-25,73.0,64.3,54.0,58.0,53.0,50.0,90,69,46,0.00,40.00,3,1,8,0.00
2013-8-26,72.0,64.6,62.0,57.0,55.6,55.0,84,74,56,0.00,40.00,1,0,7,0.00
2013-8-27,75.0,66.8,62.0,60.0,58.4,57.0,92,75,57,0.00,40.00,3,1,6,0.00
2013-8-28,74.0,71.5,68.0,63.0,61.8,60.0,77,72,63,0.00,40.00,3,1,5,0.00
2013-8-29,72.0,66.2,64.0,66.0,63.8,61.0,97,92,73,0.00,40.00,3,1,6,0.01
2013-8-30,78.0,69.8,64.0,61.0,57.3,50.0,90,68,38,0.00,40.00,5,2,8,0.01
2013-8-31,80.0,67.8,57.0,58.0,56.2,54.0,91,69,45,0.00,40.00,3,1,6,0.00
2013-9-4,69.0,64.6,60.0,60.0,58.9,58.0,95,82,70,0.00,40.00,6,2,9,0.00
2013-9-5,65.0,61.8,59.0,60.0,58.6,58.0,98,89,77,0.00,40.00,3,2,6,0.00
2013-9-6,70.0,64.3,61.0,62.0,60.7,59.0,99,89,72,0.00,40.00,3,1,6,0.00
2013-9-7,71.0,64.1,60.0,61.0,58.9,56.0,96,84,63,0.00,40.00,3,1,6,0.00
2013-9-8,79.0,68.2,57.0,61.0,59.1,57.0,99,74,48,0.00,40.00,3,1,6,0.00
2013-9-9,78.0,65.0,58.0,60.0,58.1,56.0,96,80,50,0.00,40.00,7,3,9,0.00
2013-9-10,77.0,66.6,57.0,60.0,58.6,56.0,97,77,55,0.00,40.00,6,2,9,0.00
2013-9-17,62.0,58.4,56.0,54.0,51.9,50.0,92,79,66,0.00,40.00,2,0,5,0.00
2013-9-18,56.0,56.0,56.0,54.0,52.5,51.0,93,88,82,0.00,40.00,1,0,3,0.00
2013-9-19,81.0,63.0,48.0,53.0,50.4,47.0,96,66,36,0.00,40.00,2,0,3,0.00
2013-9-20,77.0,63.9,53.0,57.0,52.6,51.0,97,70,42,0.00,40.00,3,1,7,0.00
2013-9-21,69.0,60.4,56.0,58.0,54.1,52.0,95,81,54,0.00,40.00,3,1,12,0.00
2013-9-22,61.0,58.0,56.0,56.0,52.9,51.0,94,83,71,0.00,40.00,8,2,16,0.00
2013-9-23,61.0,56.1,54.0,54.0,51.2,47.0,95,84,70,0.00,40.00,5,1,17,0.00
2013-9-24,66.0,57.1,52.0,51.0,48.6,45.0,97,76,48,0.00,40.00,3,2,10,0.00
2013-9-25,58.0,53.3,49.0,49.0,47.1,45.0,94,81,62,0.00,40.00,6,4,14,0.00
2013-9-26,62.0,52.0,45.0,49.0,47.0,45.0,100,85,55,0.00,40.00,5,1,9,0.00
2013-9-27,57.0,54.5,51.0,52.0,50.7,49.0,96,87,78,0.00,40.00,5,1,15,0.00
2013-11-10,50.0,47.6,45.0,45.0,43.8,43.0,96,87,78,0.00,40.00,5,2,8,0.00
2013-11-11,54.0,47.0,43.0,45.0,43.7,43.0,99,90,72,0.00,40.00,1,0,2,0.00
2013-11-12,55.0,54.0,53.0,51.0,50.5,50.0,92,88,83,0.00,40.00,5,4,12,0.00
2013-11-13,55.0,55.0,55.0,46.0,46.0,46.0,71,71,71,0.00,40.00,2,2,5,0.00
2013-11-15,46.0,46.0,46.0,43.0,43.0,43.0,90,90,90,0.00,40.00,7,7,24,0.00
2013-11-16,43.0,41.5,40.0,40.0,40.0,40.0,99,94,88,0.00,40.00,3,2,7,0.01
2013-12-31,45.0,41.5,38.0,41.0,39.5,38.0,100,93,86,0.00,40.00,2,2,3,0.00
2014-1-1,40.0,37.5,35.0,39.0,37.2,35.0,100,100,98,0.00,40.00,5,2,6,0.00
2014-1-2,42.0,42.0,42.0,42.0,42.0,42.0,100,100,100,0.00,40.00,0,0,0,0.00